STARLINK-2226, 48010

Orbit data source: Space-Track

STARLINK-2226, 48010 is a payload satellite owned by SpaceX/Seattle (US) in LEO that was launched on Wed, 24 Mar 2021 UTC via an FALCON 9 launch vehicle from the Air Force Eastern Test Range (AFETR). Payload-class satellites include a variety of spacecraft equipped with specific instruments for various scientific and technological missions. These include communications satellites like Starlink; space stations such as the ISS; scientific satellites like the Hubble; Earth observation satellites from companies like Planet Labs, Umbra, and HawkEye 360; GPS; miniature CubeSats for education and research; and military/defense satellites.

Loading next visibility...
Identifier
48010, 2021-024AK
Orbit
LEO
Country
Flag of USUS
Related business
Manufacturer
SpaceX/Seattle
Mission
Operational Commercial Communications
Bus & Motor
STARLINK, Unknown motor
Mass
260 kg wet, ~248 kg dry
Launch date (UTC)
2021-03-24 (5 years ago)
Launch vehicle
FALCON 9
Launch site
Air Force Eastern Test Range (AFETR)
Object type
Payload
Rocket body
Debris
Shape & HBR
Box + 1 Pan, 10.1 m
Radar Cross Section
13.562 m², Large (>1 m²)

Expand to show TLE details & history
Last TLE update: 13 hours ago

TLE from 13 hours ago
0 STARLINK-2226
1 48010U 21024AK  26175.20361070  .00001365  00000-0  55745-4 0  9997
2 48010  53.1581 197.1321 0001117  70.0065 290.1057 15.31700627290883
Epoch: 2026-06-24T04:53Z
TLE epoch observation values (Epoch: 2026-06-24T04:53:11.964Z)
Latitude
0.00001°
Longitude
-148.53193°
Altitude
471.375 km
Speed
7.632 km/s
True Right ascension
13h 08m 31s
True Declination
0° 00' 00"
Sunlit
Object was in daylight at epoch
Visualization orbit readout
Latitude
Unknown
Longitude
Unknown
Altitude
Unknown
Speed
Unknown
Apparent Right ascension
Unknown
Apparent Declination
Unknown
Sunlit
N/A
Visualization observer readout
Local Sidereal Time
04:57:41
Azimuth
Unknown
Elevation
Unknown
Doppler factor
Unknown
Orbital elements
Apogee altitude
471.76 km
Perigee altitude
470.23 km
Semi-major axis
6,849.132 km
Eccentricity
0.00011
Inclination
53.1581°
RAAN
197.1321°
Arg. of periapsis
70.0065°
True anomaly
290.09368°
Mean anomaly
290.1057°
Eccentric anomaly
290.09969°
Mean motion
3.82904 °/min
Orbital period
94.02 mins
BSTAR
0.000055745
Loading maneuver chart data...
Computing Atmospheric mass density...

Documentation

Showing up to 5 results
|